Pontiac, IL

8:51 AM CDT on September 23, 2019 (GMT -0500)
Pontiac Municipal

Weather History for KPNT - August, 2019

Change the Weather History Date:

Saturday, August 24, 2019

  Actual Average Record
Temperature  
Mean Temperature 63 °F -  
Max Temperature 76 °F 82 °F 98 °F (1936)
Min Temperature 51 °F 60 °F 33 °F (2012)
Degree Days  
Heating Degree Days 2    
Growing Degree Days 13 (Base 50)    
Moisture  
Dew Point 54 °F    
Average Humidity 72    
Maximum Humidity 99    
Minimum Humidity 44    
Precipitation  
Precipitation 0.00 in - - ()
Sea Level Pressure  
Sea Level Pressure 30.22 in    
Wind  
Wind Speed 1 mph (ESE)    
Max Wind Speed 13 mph    
Max Gust Speed 20 mph    
Visibility 10 miles    
Events      
Averages and records for this station are not official NWS values.
T = Trace of Precipitation, MM = Missing Value Source: NWS Daily Summary

Daily Weather History Graph

Daily Weather History Graph

Search for Another Location

Airport or City:

Astronomy

Aug. 24, 2019 Rise Set
Actual Time 6:13 AM CDT 7:39 PM CDT
Civil Twilight 5:44 AM CDT 8:08 PM CDT
Nautical Twilight 5:09 AM CDT 8:43 PM CDT
Astronomical Twilight 4:33 AM CDT 9:19 PM CDT
Moon 12:05 AM CDT (8/24) 2:56 PM CDT (8/24)
Length of Visible Light 14h 24m
Length of Day
13h 26m
Last Quarter, 39% of the Moon is Illuminated
Aug 24
Last Quarter
Aug 30
New
Sep 5
First Quarter
Sep 13
Full
Sep 21
Last Quarter

Hourly Weather History & Observations

Time (CDT) Temp. Dew Point Humidity Pressure Visibility Wind Dir Wind Speed Gust Speed Precip Events Conditions
12:15 AM 55.2 °F 53.2 °F 93% 30.23 in 10.0 mi Calm Calm - N/A   Clear
12:35 AM 54.5 °F 52.9 °F 94% 30.23 in 10.0 mi Calm Calm - N/A   Clear
12:55 AM 54.5 °F 53.6 °F 97% 30.22 in 10.0 mi Calm Calm - N/A   Clear
1:15 AM 55.0 °F 53.8 °F 96% 30.23 in 10.0 mi Calm Calm - N/A   Clear
1:35 AM 56.1 °F 53.1 °F 89% 30.23 in 10.0 mi Calm Calm - N/A   Clear
1:55 AM 55.4 °F 52.9 °F 91% 30.24 in 10.0 mi Calm Calm - N/A   Clear
2:15 AM 53.1 °F 52.7 °F 99% 30.23 in 10.0 mi Calm Calm - N/A   Clear
2:35 AM 52.7 °F 52.2 °F 98% 30.24 in 10.0 mi Calm Calm - N/A   Clear
2:55 AM 54.0 °F 53.4 °F 98% 30.24 in 10.0 mi Calm Calm - N/A   Clear
3:15 AM 52.9 °F 52.3 °F 98% 30.25 in 10.0 mi Calm Calm - N/A   Clear
3:35 AM 51.1 °F 50.5 °F 98% 30.24 in 10.0 mi Calm Calm - N/A   Clear
3:55 AM 52.5 °F 51.8 °F 97% 30.24 in 10.0 mi Calm Calm - N/A   Clear
4:15 AM 52.2 °F 51.8 °F 99% 30.24 in 10.0 mi Calm Calm - N/A   Clear
4:35 AM 52.2 °F 51.6 °F 98% 30.25 in 10.0 mi Calm Calm - N/A   Clear
4:55 AM 51.4 °F 50.9 °F 98% 30.25 in 10.0 mi Calm Calm - N/A   Clear
5:15 AM 51.4 °F 50.9 °F 98% 30.24 in 10.0 mi Calm Calm - N/A   Clear
5:35 AM 52.2 °F 51.8 °F 99% 30.25 in 10.0 mi Calm Calm - N/A   Clear
5:55 AM 52.9 °F 52.3 °F 98% 30.25 in 10.0 mi Calm Calm - N/A   Clear
6:15 AM 53.6 °F 52.9 °F 97% 30.25 in 10.0 mi Calm Calm - N/A   Clear
6:35 AM 53.6 °F 53.1 °F 98% 30.26 in 10.0 mi Calm Calm - N/A   Clear
6:55 AM 54.5 °F 54.0 °F 98% 30.26 in 10.0 mi Calm Calm - N/A   Clear
7:15 AM 56.3 °F 55.6 °F 97% 30.27 in 10.0 mi Calm Calm - N/A   Clear
7:35 AM 59.0 °F 56.8 °F 93% 30.27 in 10.0 mi Calm Calm - N/A   Clear
7:55 AM 60.1 °F 57.6 °F 91% 30.27 in 10.0 mi Calm Calm - N/A   Clear
8:15 AM 62.6 °F 58.1 °F 85% 30.27 in 10.0 mi Calm Calm - N/A   Clear
8:35 AM 64.0 °F 58.6 °F 83% 30.27 in 10.0 mi Calm Calm - N/A   Clear
8:55 AM 66.0 °F 59.0 °F 78% 30.27 in 10.0 mi Calm Calm - N/A   Clear
9:15 AM 66.4 °F 57.7 °F 74% 30.26 in 10.0 mi Calm Calm - N/A   Clear
9:35 AM 68.4 °F 58.1 °F 70% 30.27 in 10.0 mi Calm Calm - N/A   Clear
9:55 AM 69.3 °F 56.7 °F 64% 30.27 in 10.0 mi East 5.8 mph - N/A   Clear
10:15 AM 70.5 °F 58.3 °F 65% 30.27 in 10.0 mi Calm Calm - N/A   Clear
10:35 AM 70.7 °F 56.7 °F 61% 30.27 in 10.0 mi Calm Calm - N/A   Clear
10:55 AM 70.3 °F 57.9 °F 65% 30.27 in 10.0 mi Calm Calm - N/A   Clear
11:15 AM 71.2 °F 56.5 °F 60% 30.27 in 10.0 mi Calm Calm - N/A   Clear
11:35 AM 71.6 °F 56.1 °F 58% 30.26 in 10.0 mi ESE 11.5 mph 16.1 mph N/A   Clear
11:55 AM 73.0 °F 55.9 °F 55% 30.26 in 10.0 mi East 9.2 mph - N/A   Scattered Clouds
12:15 PM 72.7 °F 55.6 °F 55% 30.25 in 10.0 mi ESE 11.5 mph 17.3 mph N/A   Scattered Clouds
12:35 PM 71.8 °F 53.8 °F 53% 30.25 in 10.0 mi East 3.5 mph - N/A   Scattered Clouds
12:55 PM 73.4 °F 51.4 °F 46% 30.24 in 10.0 mi East 8.1 mph 16.1 mph N/A   Scattered Clouds
1:15 PM 74.8 °F 53.8 °F 48% 30.23 in 10.0 mi ESE 8.1 mph - N/A   Mostly Cloudy
1:35 PM 75.2 °F 54.0 °F 47% 30.23 in 10.0 mi East 10.4 mph - N/A   Mostly Cloudy
1:55 PM 75.7 °F 53.2 °F 45% 30.22 in 10.0 mi East 9.2 mph 17.3 mph N/A   Mostly Cloudy
2:15 PM 75.0 °F 53.1 °F 46% 30.22 in 10.0 mi Calm Calm - N/A   Mostly Cloudy
2:35 PM 75.0 °F 52.9 °F 46% 30.21 in 10.0 mi East 9.2 mph - N/A   Scattered Clouds
2:55 PM 75.9 °F 52.7 °F 44% 30.20 in 10.0 mi Calm Calm - N/A   Scattered Clouds
3:15 PM 75.6 °F 52.5 °F 45% 30.20 in 10.0 mi ESE 10.4 mph - N/A   Scattered Clouds
3:35 PM 74.7 °F 52.7 °F 46% 30.20 in 10.0 mi East 11.5 mph 16.1 mph N/A   Clear
3:55 PM 75.0 °F 52.9 °F 46% 30.19 in 10.0 mi ESE 8.1 mph - N/A   Scattered Clouds
4:15 PM 75.4 °F 52.3 °F 44% 30.18 in 10.0 mi East 4.6 mph - N/A   Scattered Clouds
4:35 PM 75.0 °F 52.5 °F 45% 30.18 in 10.0 mi ESE 9.2 mph 16.1 mph N/A   Clear
4:55 PM 74.5 °F 51.6 °F 45% 30.18 in 10.0 mi ESE 11.5 mph 19.6 mph N/A   Clear
5:15 PM 74.7 °F 52.5 °F 46% 30.18 in 10.0 mi Calm Calm - N/A   Clear
5:35 PM 74.3 °F 52.5 °F 46% 30.17 in 10.0 mi East 12.7 mph 17.3 mph N/A   Clear
5:55 PM 73.8 °F 51.6 °F 46% 30.17 in 10.0 mi Calm Calm - N/A   Clear
6:15 PM 73.4 °F 50.9 °F 45% 30.17 in 10.0 mi East 6.9 mph - N/A   Clear
6:35 PM 72.5 °F 52.0 °F 48% 30.17 in 10.0 mi Calm Calm - N/A   Clear
6:55 PM 70.9 °F 51.4 °F 50% 30.17 in 10.0 mi Calm Calm - N/A   Clear
7:15 PM 69.1 °F 51.6 °F 54% 30.17 in 10.0 mi Calm Calm - N/A   Clear
7:35 PM 66.7 °F 52.0 °F 59% 30.17 in 10.0 mi Calm Calm - N/A   Clear
7:55 PM 64.4 °F 52.7 °F 66% 30.17 in 10.0 mi Calm Calm - N/A   Clear
8:15 PM 62.6 °F 53.1 °F 71% 30.18 in 10.0 mi Calm Calm - N/A   Clear
8:35 PM 63.1 °F 52.9 °F 69% 30.18 in 10.0 mi Calm Calm - N/A   Clear
8:55 PM 63.1 °F 52.7 °F 69% 30.19 in 10.0 mi Calm Calm - N/A   Clear
9:15 PM 61.9 °F 52.9 °F 72% 30.19 in 10.0 mi Calm Calm - N/A   Clear
9:35 PM 62.2 °F 52.7 °F 71% 30.20 in 10.0 mi Calm Calm - N/A   Clear
9:55 PM 61.2 °F 52.9 °F 74% 30.19 in 10.0 mi Calm Calm - N/A   Clear
10:15 PM 60.8 °F 52.7 °F 75% 30.19 in 10.0 mi Calm Calm - N/A   Clear
10:35 PM 60.8 °F 52.7 °F 75% 30.19 in 10.0 mi Calm Calm - N/A   Clear
10:55 PM 59.9 °F 53.2 °F 79% 30.19 in 10.0 mi Calm Calm - N/A   Clear
11:15 PM 59.2 °F 53.6 °F 82% 30.19 in 10.0 mi Calm Calm - N/A   Clear
11:35 PM 57.7 °F 53.4 °F 85% 30.18 in 10.0 mi Calm Calm - N/A   Clear
11:55 PM 57.6 °F 53.1 °F 85% 30.18 in 10.0 mi Calm Calm - N/A   Clear